Weather History for KCQX - December, 2011

Change the Weather History Date:

Sunday, December 25, 2011

  Actual Average Record
Temperature  
Mean Temperature 33 °F -  
Max Temperature 45 °F 39 °F 57 °F (2014)
Min Temperature 21 °F 26 °F 2 °F (1980)
Degree Days  
Heating Degree Days 32    
Moisture  
Dew Point 28 °F    
Average Humidity 76    
Maximum Humidity 100    
Minimum Humidity 57    
Precipitation  
Precipitation 0.17 in - - ()
Sea Level Pressure  
Sea Level Pressure 30.24 in    
Wind  
Wind Speed 3 mph (South)    
Max Wind Speed 10 mph    
Max Gust Speed 18 mph    
Visibility 9 miles    
Events Rain    
Averages and records for this station are not official NWS values.
T = Trace of Precipitation, MM = Missing Value Source: NWS Daily Summary

Daily Weather History Graph

Daily Weather History Graph

Search for Another Location

Airport or City:

Trip Planner

Search our weather history database for the weather conditions in past years. The results will help you decide how hot, cold, wet, or windy it might be!

Date:

Astronomy

Dec. 25, 2011 Rise Set
Actual Time 7:05 AM EST 4:14 PM EST
Civil Twilight 6:33 AM EST 4:46 PM EST
Nautical Twilight 5:58 AM EST 5:21 PM EST
Astronomical Twilight 5:24 AM EST 5:55 PM EST
Moon 7:40 AM EST (12/25) 5:32 PM EST (12/25)
Length of Visible Light 10h 12m
Length of Day
9h 09m
New Moon, 1% of the Moon is Illuminated
Dec 25
New Moon
Jan 1
First Quarter
Jan 9
Full
Jan 16
Last Quarter
Jan 23
New

Hourly Weather History & Observations

Time (EST) Temp. Windchill Dew Point Humidity Pressure Visibility Wind Dir Wind Speed Gust Speed Precip Events Conditions
12:52 AM 28.9 °F - 17.1 °F 61% 30.48 in 10.0 mi Calm Calm - N/A   Overcast
1:52 AM 28.9 °F - 17.1 °F 61% 30.49 in 10.0 mi Calm Calm - N/A   Overcast
2:52 AM 27.0 °F - 17.1 °F 66% 30.46 in 10.0 mi Calm Calm - N/A   Overcast
3:52 AM 25.0 °F - 17.1 °F 72% 30.46 in 10.0 mi Calm Calm - N/A   Clear
4:52 AM 23.0 °F - 17.1 °F 78% 30.44 in 10.0 mi Calm Calm - N/A   Clear
5:52 AM 21.9 °F - 18.0 °F 85% 30.43 in 10.0 mi Calm Calm - N/A   Clear
6:52 AM 21.9 °F - 17.1 °F 82% 30.42 in 10.0 mi Calm Calm - N/A   Clear
7:52 AM 27.0 °F - 21.9 °F 81% 30.41 in 10.0 mi Calm Calm - N/A   Scattered Clouds
8:52 AM 33.1 °F 27.7 °F 21.0 °F 61% 30.38 in 10.0 mi SE 5.8 mph - N/A   Clear
9:52 AM 36.0 °F 29.6 °F 21.9 °F 57% 30.38 in 10.0 mi South 8.1 mph - N/A   Clear
10:52 AM 37.0 °F 31.0 °F 23.0 °F 57% 30.34 in 10.0 mi South 8.1 mph - N/A   Overcast
11:52 AM 37.9 °F 31.5 °F 26.1 °F 62% 30.29 in 10.0 mi South 9.2 mph - N/A   Overcast
12:52 PM 37.9 °F 31.5 °F 27.0 °F 65% 30.24 in 10.0 mi South 9.2 mph - N/A   Overcast
1:28 PM 37.4 °F 32.1 °F 28.4 °F 70% 30.21 in 10.0 mi SSW 6.9 mph - N/A   Overcast
1:52 PM 37.9 °F 32.7 °F 30.0 °F 73% 30.20 in 10.0 mi South 6.9 mph - N/A   Overcast
2:27 PM 35.6 °F 29.9 °F 33.8 °F 93% 30.19 in 1.8 mi Variable 6.9 mph 18.4 mph 0.01 in Rain Light Rain
2:44 PM 33.8 °F - 33.8 °F 100% 30.18 in 3.0 mi Calm Calm - 0.04 in Rain Light Rain
2:52 PM 35.1 °F - 33.1 °F 92% 30.18 in 10.0 mi Calm Calm - 0.05 in Rain Light Rain
3:16 PM 37.4 °F 32.1 °F 35.6 °F 93% 30.16 in 10.0 mi SSW 6.9 mph 16.1 mph 0.03 in   Overcast
3:52 PM 39.0 °F 34.0 °F 35.1 °F 86% 30.15 in 10.0 mi South 6.9 mph - 0.06 in   Overcast
4:52 PM 39.9 °F 34.5 °F 35.1 °F 83% 30.13 in 10.0 mi South 8.1 mph 17.3 mph N/A   Overcast
6:52 PM 43.0 °F 37.2 °F 34.0 °F 71% 30.07 in 10.0 mi SSW 10.4 mph 18.4 mph N/A   Mostly Cloudy
7:52 PM 44.1 °F 39.5 °F 36.0 °F 73% 30.04 in 10.0 mi SSW 8.1 mph 18.4 mph N/A   Overcast
8:52 PM 44.1 °F 39.0 °F 37.0 °F 76% 30.00 in 10.0 mi SSW 9.2 mph 17.3 mph N/A   Scattered Clouds
9:52 PM 45.0 °F 40.1 °F 39.0 °F 80% 29.97 in 10.0 mi SW 9.2 mph - 0.00 in   Overcast
10:52 PM 45.0 °F 41.8 °F 37.9 °F 76% 29.94 in 10.0 mi SW 5.8 mph - 0.00 in Rain Light Rain
11:52 PM 41.0 °F 36.4 °F 39.0 °F 93% 29.91 in 7.0 mi Variable 6.9 mph - 0.06 in Rain Light Rain